Location: Bidart
(43.4376°N, 1.5913°W)
Time: 13:03:23
(UTC+00:00)

ISS - Pass Details

Date: 24 January 2026
Orbit: 413 x 429 km, 51.6° (Epoch: 11 February)

Event Time Altitude Azimuth Distance (km) Brightness Sun altitude
Rises 18:28:46 0° 303° (WNW) 2,366 0.8 -14.8°
Reaches altitude 10° 18:31:03 10° 315° (NW) 1,504 -0.5 -15.2°
Maximum altitude 18:34:02 28° 18° (NNE) 815 -2.6 -15.7°
Enters shadow 18:34:29 27° 33° (NNE) 837 -2.6 -15.8°
